[[[{"header":{"parameterUnit":"kt","parameterCategory":2,"dx":1,"dy":1,"la1":30.253999710083008,"la2":30.299108505249023,"lo1":-89.0895004272461,"lo2":-89.04439544677734,"nx":28,"ny":28,"refTime":"2022-09-18T21:00:00:Z","depth":0,"parameterNumber":1,"parameterNumberName":"U-component_of_WINDS"},"data":[-1.7359,-1.7249,-1.7237,-1.7106,-1.7074,-1.6983,-1.6947,-1.69,-1.6859,-1.6751,-1.6686,-1.6663,-1.6619,-1.654,-1.6471,-1.6463,-1.6436,-1.6407,-1.6403,-1.654,-1.6558,-1.6576,-1.6602,-1.64,-1.64,-1.6263,-1.6262,-1.6261,-1.7467,-1.7434,-1.736,-1.7281,-1.7218,-1.724,-1.7179,-1.7126,-1.7044,-1.6992,-1.6927,-1.683,-1.6753,-1.6716,-1.664,-1.6591,-1.6597,-1.6571,-1.6576,-1.6569,-1.6715,-1.6743,-1.6568,-1.6568,-1.6568,-1.6568,-1.6568,-1.6568,-1.7662,-1.7596,-1.7541,-1.746,-1.7417,-1.7364,-1.7299,-1.7271,-1.72,-1.7116,-1.7115,-1.7022,-1.6968,-1.6869,-1.6832,-1.6761,-1.6787,-1.6756,-1.6748,-1.6741,-1.6736,-1.6943,-1.6747,-1.6748,-1.6748,-1.6748,-1.6749,0,-1.7802,-1.7796,-1.7724,-1.7648,-1.7589,-1.7528,-1.7471,-1.743,-1.7413,-1.7353,-1.7268,-1.7216,-1.7115,-1.7033,-1.6958,-1.6926,-1.6942,-1.6941,-1.692,-1.6921,-1.6933,-1.6929,-1.717,-1.6946,-1.6948,-1.6949,-1.695,-1.6951,-1.8001,-1.7923,-1.7857,-1.7809,-1.7773,-1.7693,-1.7644,-1.7633,-1.7581,-1.7509,-1.7451,-1.7368,-1.7301,-1.7166,-1.7134,-1.7058,-1.7065,-1.6982,-1.7053,-1.7059,-1.7067,-1.7073,-1.7067,-1.6968,-1.6966,-1.6964,-1.6963,0,-1.8115,-1.8093,-1.7968,-1.791,-1.7893,-1.7813,-1.7764,-1.7696,-1.7676,-1.758,-1.7558,-1.7525,-1.744,-1.7421,-1.7319,-1.7313,-1.7185,-1.7192,-1.7205,-1.7207,-1.7132,-1.7141,-1.6888,-1.6856,-1.7061,-1.7059,-1.7057,0,-1.8277,-1.8174,-1.8149,-1.8077,-1.7964,-1.7956,-1.7844,-1.7815,-1.7766,-1.7691,-1.7705,-1.7634,-1.762,-1.7547,-1.7535,-1.7427,-1.7407,-1.7396,-1.7394,-1.7395,-1.7397,-1.7368,-1.7379,-1.739,-1.7391,-1.7392,-1.7393,0,-1.8459,-1.8323,-1.8206,-1.8172,-1.8098,-1.8044,-1.8011,-1.7955,-1.7905,-1.7837,-1.7806,-1.7727,-1.7684,-1.7624,-1.7611,-1.7661,-1.7476,-1.7542,-1.7465,-1.7466,-1.7425,-1.7428,-1.7209,-1.7395,-1.7395,-1.7396,-1.7396,0,-1.8587,-1.8517,-1.835,-1.829,-1.8254,-1.8176,-1.8099,-1.8027,-1.7967,-1.7955,-1.7901,-1.7908,-1.7808,-1.7876,-1.774,-1.7809,-1.7767,-1.7747,-1.7741,-1.7732,-1.7808,-1.7689,-1.748,-1.7459,-1.7724,-1.7726,-1.7729,0,-1.8803,-1.8627,-1.8618,-1.8459,-1.8375,-1.8397,-1.8311,-1.8256,-1.8232,-1.8158,-1.8132,-1.8047,-1.8092,-1.8063,-1.7998,-1.7968,-1.7878,-1.7979,-1.7877,-1.7873,-1.7895,-1.7701,-1.7676,-1.7528,-1.7763,-1.7759,-1.7757,0,-1.8968,-1.8877,-1.8848,-1.881,-1.8734,-1.8662,-1.8562,-1.8476,-1.8428,-1.8362,-1.828,-1.8158,-1.8189,-1.8139,-1.8135,-1.8068,-1.7939,-1.8109,-1.8108,-1.8082,-1.7777,-1.7755,-1.773,-1.7951,-1.7947,-1.7944,-1.7784,0,-1.9171,-1.9078,-1.9,-1.891,-1.8851,-1.8749,-1.8726,-1.8668,-1.867,-1.8647,-1.8523,-1.8469,-1.838,-1.8345,-1.8345,-1.8198,-1.8219,-1.8251,-1.8316,-1.8188,-1.8135,-1.8113,-1.8397,-1.8399,-1.84,-1.8402,0,0,-1.9385,-1.9251,-1.9242,-1.9143,-1.9094,-1.9116,-1.9009,-1.8962,-1.8867,-1.8833,-1.8869,-1.8689,-1.8643,-1.8495,-1.8453,-1.8415,-1.8388,-1.8432,-1.8248,-1.8232,-1.8216,-1.816,-1.8137,-1.8404,-1.8405,-1.8405,-1.8406,0,-1.9454,-1.9406,-1.9299,-1.9251,-1.9179,-1.9158,-1.9133,-1.9065,-1.9044,-1.8921,-1.8941,-1.8863,-1.8716,-1.8667,-1.8623,-1.8449,-1.8469,-1.8423,-1.8339,-1.8264,-1.8245,-1.8228,-1.8169,-1.8148,-1.8409,-1.8409,-1.8409,0,-1.9614,-1.9564,-1.9509,-1.9394,-1.9346,-1.9257,-1.932,-1.9222,-1.9157,-1.9184,-1.9061,-1.9027,-1.8957,-1.8819,-1.8755,-1.8786,-1.8544,-1.8614,-1.8604,-1.8597,-1.8522,-1.85,-1.8479,-1.8747,-1.8748,-1.8749,0,0,-1.9677,-1.959,-1.9531,-1.9407,-1.9376,-1.9342,-1.9292,-1.9288,-1.9225,-1.9199,-1.9156,-1.9093,-1.9009,-1.8953,-1.8872,-1.8722,-1.8708,-1.8657,-1.8641,-1.8628,-1.8613,-1.8536,-1.8513,-1.8754,-1.8754,-1.8754,0,0,-1.9707,-1.9635,-1.9648,-1.95,-1.944,-1.9373,-1.9298,-1.9313,-1.9237,-1.9246,-1.9235,-1.9217,-1.9087,-1.9052,-1.912,-1.8895,-1.8959,-1.8942,-1.8922,-1.8902,-1.8886,-1.8897,-1.9175,0,0,0,0,0,-1.9765,-1.9644,-1.9657,-1.9629,-1.9481,-1.9366,-1.9348,-1.9336,-1.9383,-1.9324,-1.9291,-1.9313,-1.9087,-1.9147,-1.9119,-1.9043,-1.8816,-1.8805,-1.8795,-1.8734,-1.8713,-1.8695,0,0,0,0,0,0,-1.9754,-1.9719,-1.966,-1.9589,-1.9556,-1.9371,-1.9447,-1.9441,-1.9389,-1.9395,-1.9319,-1.9311,-1.9298,-1.9161,-1.9135,-1.9064,-1.9184,-1.8812,-1.8803,-1.8794,-1.8727,-1.8709,-1.8695,0,0,0,0,0,-1.9745,-1.9717,-1.9484,-1.9591,-1.9562,-1.9517,-1.9452,-1.9447,-1.9406,-1.9353,-1.9345,-1.9402,-1.9296,-1.9274,-1.9146,-1.9075,-1.9201,-1.9192,-1.8806,-1.8798,-1.8792,-1.8718,0,0,0,0,0,0,-1.9738,-1.9712,-1.9478,-1.9469,-1.9635,-1.9528,-1.951,-1.9452,-1.9367,-1.9359,-1.9436,-1.9442,-1.9293,-1.9277,-1.926,-1.908,-1.9215,-1.9206,-1.92,-1.88,-1.8794,-1.8789,0,0,0,0,0,0,-1.9727,-1.9704,-1.9473,-1.953,-1.9527,-1.9537,-1.9521,-1.9409,-1.9366,-1.9455,-1.9458,-1.9439,-1.9319,-1.9278,-1.9265,-1.9091,-1.9226,-1.9217,-1.9211,-1.9207,-1.8795,-1.8791,0,0,0,0,0,0,-1.9717,-1.9697,-1.9532,-1.953,-1.9527,-1.9423,-1.9438,-1.9287,-1.9415,-1.9459,-1.9426,-1.9431,-1.9319,-1.9306,-1.9268,-1.9099,-1.9093,-1.9226,-1.922,-1.9215,-1.9212,0,0,0,0,0,0,0,-1.9709,-1.9844,-1.9532,-1.953,-1.9528,-1.9384,-1.9381,-1.9378,-1.9416,-1.9421,-1.9425,-1.9429,-1.9278,-1.9268,-1.9258,-1.9107,0,0,-1.9227,-1.9222,0,0,0,0,0,0,0,0,-1.9852,-1.9846,-1.9532,-1.953,-1.9528,-1.9383,-1.9381,-1.9379,-1.9417,-1.9421,-1.9424,-1.9428,-1.9275,-1.9267,-1.9259,0,0,0,0,0,0,0,0,0,0,0,0,0,0,0,-1.9532,-1.953,0,-1.9383,-1.9381,-1.9379,-1.9418,-1.942,-1.9423,-1.9426,-1.9273,-1.9266,-1.926,0,0,0,0,0,0,0,0,0,0,0,0,0,0,0,0,0,0,0,0,0,0,0,0,0,0,0,0,0,0,0,0,0,0,0,0,0,0,0,0,0,0,0,0,0,0,0,0,0,0,0,0,0,0,0,0,0,0,0,0,0,0,0,0,0,0,0,0,0]}],[{"header":{"parameterUnit":"kt","parameterCategory":2,"dx":1,"dy":1,"la1":30.253999710083008,"la2":30.299108505249023,"lo1":-89.0895004272461,"lo2":-89.04439544677734,"nx":28,"ny":28,"refTime":"2022-09-18T21:00:00:Z","depth":0,"parameterNumber":2,"parameterNumberName":"V-component_of_WINDS"},"data":[-0.2163,-0.2084,-0.2111,-0.2032,-0.2043,-0.1995,-0.1986,-0.1977,-0.1976,-0.192,-0.1892,-0.1909,-0.1917,-0.189,-0.1861,-0.1869,-0.1858,-0.1812,-0.183,-0.201,-0.2036,-0.2062,-0.2086,-0.1807,-0.1807,-0.1644,-0.1642,-0.1641,-0.23,-0.2311,-0.2275,-0.226,-0.2231,-0.2292,-0.2283,-0.2255,-0.2209,-0.2205,-0.2178,-0.213,-0.2095,-0.2118,-0.2089,-0.2053,-0.208,-0.2043,-0.205,-0.2051,-0.2242,-0.2267,-0.2022,-0.2022,-0.2022,-0.2022,-0.2022,-0.2023,-0.2559,-0.2509,-0.2515,-0.2478,-0.2476,-0.2464,-0.2421,-0.2444,-0.2408,-0.238,-0.2416,-0.2363,-0.2364,-0.2338,-0.2335,-0.2295,-0.234,-0.2308,-0.2301,-0.2294,-0.2285,-0.2529,-0.2289,-0.229,-0.2291,-0.2292,-0.2292,0,-0.2758,-0.2784,-0.2751,-0.2726,-0.2699,-0.2681,-0.2669,-0.2642,-0.2703,-0.267,-0.2626,-0.2605,-0.2561,-0.2523,-0.2498,-0.2502,-0.2563,-0.2568,-0.2548,-0.2535,-0.2527,-0.2537,-0.2854,-0.2576,-0.2578,-0.258,-0.2582,-0.2583,-0.3027,-0.2962,-0.2979,-0.2953,-0.2953,-0.2906,-0.2885,-0.2942,-0.2917,-0.2909,-0.286,-0.2821,-0.2793,-0.2715,-0.274,-0.2706,-0.2736,-0.2629,-0.2732,-0.2722,-0.2743,-0.2749,-0.2746,-0.2609,-0.2606,-0.2603,-0.2601,0,-0.3177,-0.322,-0.3127,-0.3149,-0.3153,-0.3082,-0.3101,-0.3051,-0.3077,-0.3012,-0.3,-0.3039,-0.2993,-0.3035,-0.2989,-0.3013,-0.2901,-0.2927,-0.2904,-0.2914,-0.2827,-0.2837,-0.2523,-0.2488,-0.277,-0.2767,-0.2765,0,-0.3426,-0.3337,-0.3406,-0.335,-0.3254,-0.3315,-0.3219,-0.3231,-0.3232,-0.3181,-0.3255,-0.3206,-0.3267,-0.3223,-0.3257,-0.3173,-0.3161,-0.3177,-0.3188,-0.3174,-0.3173,-0.3164,-0.318,-0.3207,-0.3209,-0.321,-0.3212,0,-0.3662,-0.359,-0.3499,-0.349,-0.3502,-0.3458,-0.346,-0.3461,-0.3437,-0.3412,-0.3399,-0.3364,-0.3346,-0.3319,-0.3365,-0.3434,-0.3259,-0.3363,-0.3275,-0.3274,-0.3238,-0.324,-0.2949,-0.3214,-0.3214,-0.3215,-0.3215,0,-0.387,-0.3845,-0.3703,-0.3718,-0.3697,-0.3633,-0.3607,-0.3562,-0.3556,-0.3575,-0.3555,-0.3611,-0.3535,-0.3637,-0.3535,-0.3614,-0.3592,-0.3598,-0.3593,-0.3593,-0.3708,-0.3545,-0.3257,-0.3232,-0.3589,-0.3592,-0.3595,0,-0.4133,-0.3998,-0.4051,-0.3912,-0.3857,-0.3949,-0.388,-0.3871,-0.389,-0.3847,-0.3867,-0.3814,-0.3898,-0.3888,-0.3831,-0.3851,-0.3748,-0.3865,-0.3805,-0.3802,-0.3812,-0.3546,-0.3496,-0.3315,-0.3635,-0.363,-0.3627,0,-0.4342,-0.4357,-0.4328,-0.4323,-0.4321,-0.4272,-0.4191,-0.4153,-0.4122,-0.41,-0.4038,-0.396,-0.4024,-0.4003,-0.4043,-0.3982,-0.3819,-0.4057,-0.4058,-0.4018,-0.3656,-0.361,-0.3579,-0.386,-0.3855,-0.3851,-0.3659,0,-0.466,-0.4596,-0.4518,-0.4496,-0.4465,-0.4377,-0.4424,-0.4385,-0.443,-0.4452,-0.4354,-0.4354,-0.4313,-0.4285,-0.4325,-0.417,-0.4204,-0.4269,-0.4375,-0.4197,-0.4136,-0.411,-0.4464,-0.4467,-0.447,-0.4472,0,0,-0.4904,-0.4813,-0.4871,-0.4794,-0.4773,-0.4868,-0.4772,-0.476,-0.4733,-0.4717,-0.4775,-0.4667,-0.4663,-0.4541,-0.4489,-0.4468,-0.4447,-0.4505,-0.428,-0.4258,-0.4238,-0.4172,-0.4144,-0.4477,-0.4478,-0.4479,-0.448,0,-0.5032,-0.5027,-0.4929,-0.4921,-0.4911,-0.4939,-0.4915,-0.4921,-0.493,-0.4833,-0.4913,-0.4858,-0.4766,-0.4755,-0.4737,-0.452,-0.4584,-0.4503,-0.4375,-0.4306,-0.4281,-0.4259,-0.4188,-0.4161,-0.4487,-0.4486,-0.4486,0,-0.5251,-0.5256,-0.5213,-0.5164,-0.5157,-0.5094,-0.5217,-0.5143,-0.5098,-0.5202,-0.5105,-0.511,-0.5096,-0.4971,-0.4915,-0.4968,-0.4708,-0.4794,-0.4777,-0.4774,-0.471,-0.4679,-0.4652,-0.5012,-0.5013,-0.5015,0,0,-0.5355,-0.5294,-0.5316,-0.5194,-0.5185,-0.5224,-0.5193,-0.5234,-0.522,-0.5214,-0.5223,-0.5206,-0.5155,-0.5119,-0.5072,-0.4926,-0.4931,-0.4857,-0.4832,-0.4812,-0.4797,-0.4727,-0.4697,-0.5021,-0.5021,-0.5022,0,0,-0.5404,-0.5427,-0.5474,-0.5338,-0.5323,-0.5337,-0.5261,-0.5318,-0.5281,-0.5296,-0.5359,-0.5357,-0.524,-0.5241,-0.532,-0.5111,-0.5214,-0.5195,-0.5115,-0.5085,-0.506,-0.5065,-0.5446,0,0,0,0,0,-0.5559,-0.5425,-0.5467,-0.5451,-0.5387,-0.5313,-0.5306,-0.5356,-0.543,-0.537,-0.5386,-0.5454,-0.5298,-0.537,-0.5353,-0.5264,-0.5103,-0.5088,-0.5075,-0.4937,-0.4905,-0.4877,0,0,0,0,0,0,-0.5553,-0.5533,-0.5471,-0.5478,-0.5464,-0.5319,-0.5456,-0.5466,-0.5438,-0.5453,-0.5449,-0.5454,-0.5495,-0.5383,-0.5366,-0.5281,-0.5452,-0.5097,-0.5085,-0.5074,-0.4926,-0.49,-0.4877,0,0,0,0,0,-0.5549,-0.5533,-0.5417,-0.548,-0.5468,-0.5503,-0.5461,-0.5471,-0.545,-0.5474,-0.5482,-0.5491,-0.5491,-0.548,-0.5373,-0.5287,-0.5463,-0.5457,-0.5089,-0.5079,-0.5071,-0.4913,0,0,0,0,0,0,-0.5545,-0.5541,-0.5416,-0.5414,-0.5534,-0.5513,-0.5511,-0.5474,-0.5474,-0.548,-0.5519,-0.5531,-0.5486,-0.5479,-0.5471,-0.5287,-0.5473,-0.5466,-0.5462,-0.5082,-0.5074,-0.5067,0,0,0,0,0,0,-0.555,-0.5538,-0.5415,-0.548,-0.5487,-0.5521,-0.5519,-0.5434,-0.5473,-0.552,-0.553,-0.5525,-0.5499,-0.5477,-0.5471,-0.5335,-0.548,-0.5474,-0.547,-0.5467,-0.5076,-0.507,0,0,0,0,0,0,-0.5546,-0.5536,-0.5481,-0.5486,-0.5492,-0.5475,-0.5446,-0.5377,-0.5531,-0.5518,-0.5546,-0.5553,-0.5495,-0.549,-0.5471,-0.5337,-0.5336,-0.548,-0.5476,-0.5473,-0.5471,0,0,0,0,0,0,0,-0.5543,-0.5595,-0.5426,-0.549,-0.5496,-0.5397,-0.5397,-0.5396,-0.5532,-0.5538,-0.5544,-0.555,-0.5515,-0.5509,-0.5502,-0.5339,0,0,-0.5481,-0.5478,0,0,0,0,0,0,0,0,-0.56,-0.5596,-0.5426,-0.5426,-0.5425,-0.5397,-0.5397,-0.5396,-0.5533,-0.5538,-0.5543,-0.5547,-0.5514,-0.5508,-0.5503,0,0,0,0,0,0,0,0,0,0,0,0,0,0,0,-0.5426,-0.5426,0,-0.5397,-0.5397,-0.5397,-0.5534,-0.5538,-0.5542,-0.5546,-0.5512,-0.5508,-0.5503,0,0,0,0,0,0,0,0,0,0,0,0,0,0,0,0,0,0,0,0,0,0,0,0,0,0,0,0,0,0,0,0,0,0,0,0,0,0,0,0,0,0,0,0,0,0,0,0,0,0,0,0,0,0,0,0,0,0,0,0,0,0,0,0,0,0,0,0,0]}]]]